Time,TemperatureF,DewpointF,PressureIn,WindDirection,WindDirectionDegrees,WindSpeedMPH,WindSpeedGustMPH,Humidity,HourlyPrecipIn,Conditions,Clouds,dailyrainin,SoftwareType,DateUTC
2013-08-18 00:12:00,69.0,63.0,30.12,East,87,0.0,0.0,81,0.00,,,0.00,,2013-08-18 05:12:00,
2013-08-18 00:22:00,69.0,63.0,30.12,East,86,0.0,0.0,81,0.00,,,0.00,,2013-08-18 05:22:00,
2013-08-18 00:42:00,69.0,63.0,30.12,East,86,0.0,0.0,81,0.00,,,0.00,,2013-08-18 05:42:00,
2013-08-18 00:52:00,69.0,63.0,30.13,East,86,0.0,0.0,81,0.00,,,0.00,,2013-08-18 05:52:00,
2013-08-18 01:11:00,68.0,63.0,30.12,East,86,0.0,0.0,83,0.00,,,0.00,,2013-08-18 06:11:00,
2013-08-18 01:21:00,67.0,63.0,30.12,East,86,0.0,0.0,86,0.00,,,0.00,,2013-08-18 06:21:00,
2013-08-18 01:42:00,67.0,63.0,30.12,East,86,0.0,0.0,87,0.00,,,0.00,,2013-08-18 06:42:00,
2013-08-18 01:52:00,66.0,62.0,30.12,East,86,0.0,0.0,86,0.00,,,0.00,,2013-08-18 06:52:00,
2013-08-18 02:11:00,66.0,62.0,30.12,East,86,0.0,0.0,86,0.00,,,0.00,,2013-08-18 07:11:00,
2013-08-18 02:22:00,65.0,61.0,30.12,East,86,0.0,0.0,88,0.00,,,0.00,,2013-08-18 07:22:00,
2013-08-18 02:42:00,65.0,62.0,30.12,East,86,0.0,0.0,89,0.00,,,0.00,,2013-08-18 07:42:00,
2013-08-18 02:52:00,64.0,61.0,30.12,East,86,0.0,0.0,90,0.00,,,0.00,,2013-08-18 07:52:00,
2013-08-18 03:12:00,64.0,61.0,30.12,East,86,0.0,0.0,91,0.00,,,0.00,,2013-08-18 08:12:00,
2013-08-18 03:21:00,64.0,62.0,30.11,East,86,0.0,0.0,92,0.00,,,0.00,,2013-08-18 08:21:00,
2013-08-18 03:52:00,63.0,61.0,30.11,East,86,0.0,0.0,93,0.00,,,0.00,,2013-08-18 08:52:00,
2013-08-18 04:11:00,63.0,61.0,30.11,East,86,0.0,0.0,93,0.00,,,0.00,,2013-08-18 09:11:00,
2013-08-18 04:21:00,63.0,61.0,30.11,East,86,0.0,0.0,93,0.00,,,0.00,,2013-08-18 09:21:00,
2013-08-18 04:43:00,63.0,61.0,30.11,East,86,0.0,0.0,94,0.00,,,0.00,,2013-08-18 09:43:00,
2013-08-18 04:53:00,64.0,62.0,30.11,East,86,0.0,0.0,93,0.00,,,0.00,,2013-08-18 09:53:00,
2013-08-18 05:13:00,64.0,62.0,30.11,East,86,0.0,0.0,92,0.00,,,0.00,,2013-08-18 10:13:00,
2013-08-18 05:22:00,63.0,61.0,30.11,East,86,0.0,0.0,93,0.00,,,0.00,,2013-08-18 10:22:00,
2013-08-18 05:42:00,63.0,61.0,30.11,East,86,0.0,0.0,93,0.00,,,0.00,,2013-08-18 10:42:00,
2013-08-18 05:52:00,62.0,60.0,30.11,East,86,0.0,0.0,94,0.00,,,0.00,,2013-08-18 10:52:00,
2013-08-18 06:11:00,62.0,60.0,30.11,East,86,0.0,0.0,94,0.00,,,0.00,,2013-08-18 11:11:00,
2013-08-18 06:22:00,62.0,60.0,30.12,East,86,0.0,0.0,94,0.00,,,0.00,,2013-08-18 11:22:00,
2013-08-18 06:42:00,62.0,60.0,30.12,East,86,0.0,0.0,94,0.00,,,0.00,,2013-08-18 11:42:00,
2013-08-18 06:52:00,61.0,59.0,30.13,East,86,0.0,0.0,94,0.00,,,0.00,,2013-08-18 11:52:00,
2013-08-18 07:11:00,61.0,60.0,30.13,East,86,0.0,0.0,95,0.00,,,0.00,,2013-08-18 12:11:00,
2013-08-18 07:21:00,61.0,60.0,30.14,East,86,0.0,0.0,95,0.00,,,0.00,,2013-08-18 12:21:00,
2013-08-18 07:42:00,61.0,60.0,30.14,East,86,0.0,0.0,95,0.00,,,0.00,,2013-08-18 12:42:00,
2013-08-18 07:52:00,61.0,60.0,30.14,East,86,0.0,0.0,95,0.00,,,0.00,,2013-08-18 12:52:00,
2013-08-18 08:11:00,62.0,61.0,30.14,East,86,0.0,0.0,96,0.00,,,0.00,,2013-08-18 13:11:00,
2013-08-18 08:21:00,62.0,61.0,30.15,East,86,0.0,0.0,96,0.00,,,0.00,,2013-08-18 13:21:00,
2013-08-18 08:42:00,63.0,62.0,30.15,East,86,0.0,0.0,96,0.00,,,0.00,,2013-08-18 13:42:00,
2013-08-18 08:52:00,64.0,63.0,30.16,East,100,0.0,0.0,96,0.00,,,0.00,,2013-08-18 13:52:00,
2013-08-18 09:11:00,66.0,65.0,30.16,SSE,148,0.0,1.0,95,0.00,,,0.00,,2013-08-18 14:11:00,
2013-08-18 09:21:00,68.0,65.0,30.16,SW,235,0.0,3.0,91,0.00,,,0.00,,2013-08-18 14:21:00,
2013-08-18 09:53:00,70.0,66.0,30.17,East,90,0.0,4.0,86,0.00,,,0.00,,2013-08-18 14:53:00,
2013-08-18 10:11:00,72.0,67.0,30.17,South,176,1.0,4.0,83,0.00,,,0.00,,2013-08-18 15:11:00,
2013-08-18 10:22:00,74.0,67.0,30.17,SSE,160,1.0,4.0,80,0.00,,,0.00,,2013-08-18 15:22:00,
2013-08-18 10:43:00,76.0,68.0,30.18,WNW,284,0.0,3.0,77,0.00,,,0.00,,2013-08-18 15:43:00,
2013-08-18 10:53:00,77.0,68.0,30.18,SSW,202,0.0,3.0,75,0.00,,,0.00,,2013-08-18 15:53:00,
2013-08-18 11:13:00,78.0,69.0,30.18,SW,224,0.0,3.0,73,0.00,,,0.00,,2013-08-18 16:13:00,
2013-08-18 11:23:00,79.0,68.0,30.17,SW,232,0.0,4.0,70,0.00,,,0.00,,2013-08-18 16:23:00,
2013-08-18 11:42:00,80.0,69.0,30.17,WNW,290,0.0,3.0,70,0.00,,,0.00,,2013-08-18 16:42:00,
2013-08-18 11:52:00,81.0,69.0,30.17,ESE,115,0.0,3.0,67,0.00,,,0.00,,2013-08-18 16:52:00,
2013-08-18 12:13:00,82.0,69.0,30.17,SE,130,0.0,3.0,65,0.00,,,0.00,,2013-08-18 17:13:00,
2013-08-18 12:23:00,83.0,66.0,30.16,East,91,1.0,4.0,56,0.00,,,0.00,,2013-08-18 17:23:00,
2013-08-18 12:42:00,82.0,65.0,30.16,West,274,1.0,3.0,57,0.00,,,0.00,,2013-08-18 17:42:00,
2013-08-18 12:52:00,82.0,65.0,30.16,West,270,1.0,2.0,57,0.00,,,0.00,,2013-08-18 17:52:00,
2013-08-18 13:12:00,82.0,69.0,30.15,West,264,0.0,3.0,64,0.00,,,0.00,,2013-08-18 18:12:00,
2013-08-18 13:21:00,83.0,66.0,30.15,South,170,0.0,5.0,57,0.00,,,0.00,,2013-08-18 18:21:00,
2013-08-18 13:42:00,82.0,67.0,30.15,East,95,1.0,4.0,60,0.00,,,0.00,,2013-08-18 18:42:00,
2013-08-18 13:52:00,83.0,67.0,30.14,ESE,115,0.0,6.0,58,0.00,,,0.00,,2013-08-18 18:52:00,
2013-08-18 14:11:00,85.0,68.0,30.13,West,278,0.0,3.0,56,0.00,,,0.00,,2013-08-18 19:11:00,
2013-08-18 14:22:00,85.0,66.0,30.13,SW,217,0.0,8.0,53,0.00,,,0.00,,2013-08-18 19:22:00,
2013-08-18 14:42:00,85.0,65.0,30.13,ESE,110,0.0,5.0,52,0.00,,,0.00,,2013-08-18 19:42:00,
2013-08-18 14:52:00,85.0,65.0,30.12,SSW,208,0.0,4.0,52,0.00,,,0.00,,2013-08-18 19:52:00,
2013-08-18 15:12:00,85.0,66.0,30.11,SW,224,1.0,4.0,54,0.00,,,0.00,,2013-08-18 20:12:00,
2013-08-18 15:22:00,85.0,66.0,30.11,North,11,0.0,3.0,54,0.00,,,0.00,,2013-08-18 20:22:00,
2013-08-18 15:52:00,85.0,67.0,30.11,SSW,203,0.0,5.0,55,0.00,,,0.00,,2013-08-18 20:52:00,
2013-08-18 16:11:00,86.0,67.0,30.10,ESE,105,1.0,4.0,54,0.00,,,0.00,,2013-08-18 21:11:00,
2013-08-18 16:21:00,85.0,66.0,30.10,East,84,0.0,4.0,53,0.00,,,0.00,,2013-08-18 21:21:00,
2013-08-18 16:53:00,84.0,63.0,30.09,South,181,2.0,6.0,50,0.00,,,0.00,,2013-08-18 21:53:00,
2013-08-18 17:13:00,84.0,66.0,30.09,ESE,116,0.0,1.0,55,0.00,,,0.00,,2013-08-18 22:13:00,
2013-08-18 17:23:00,84.0,64.0,30.09,SSW,204,1.0,4.0,52,0.00,,,0.00,,2013-08-18 22:23:00,
2013-08-18 17:42:00,84.0,64.0,30.09,SSW,205,1.0,5.0,52,0.00,,,0.00,,2013-08-18 22:42:00,
2013-08-18 17:52:00,84.0,66.0,30.08,SW,226,0.0,3.0,55,0.00,,,0.00,,2013-08-18 22:52:00,
2013-08-18 18:11:00,84.0,64.0,30.08,NNW,335,0.0,4.0,52,0.00,,,0.00,,2013-08-18 23:11:00,
2013-08-18 18:22:00,83.0,63.0,30.08,SE,127,0.0,0.0,51,0.00,,,0.00,,2013-08-18 23:22:00,
2013-08-18 18:42:00,82.0,67.0,30.07,SW,221,0.0,2.0,60,0.00,,,0.00,,2013-08-18 23:42:00,
2013-08-18 18:52:00,82.0,63.0,30.07,SE,138,0.0,5.0,53,0.00,,,0.00,,2013-08-18 23:52:00,
2013-08-18 19:11:00,82.0,65.0,30.07,SE,138,0.0,2.0,56,0.00,,,0.00,,2013-08-19 00:11:00,
2013-08-18 19:21:00,81.0,65.0,30.07,SSW,208,0.0,1.0,59,0.00,,,0.00,,2013-08-19 00:21:00,
2013-08-18 19:42:00,80.0,66.0,30.06,South,169,0.0,2.0,63,0.00,,,0.00,,2013-08-19 00:42:00,
2013-08-18 19:52:00,80.0,66.0,30.06,SSW,211,0.0,0.0,62,0.00,,,0.00,,2013-08-19 00:52:00,
2013-08-18 20:11:00,80.0,66.0,30.06,South,170,0.0,0.0,63,0.00,,,0.00,,2013-08-19 01:11:00,
2013-08-18 20:22:00,78.0,66.0,30.06,South,170,0.0,0.0,66,0.00,,,0.00,,2013-08-19 01:22:00,
2013-08-18 20:42:00,77.0,66.0,30.07,South,170,0.0,0.0,70,0.00,,,0.00,,2013-08-19 01:42:00,
2013-08-18 20:52:00,75.0,66.0,30.07,South,170,0.0,0.0,73,0.00,,,0.00,,2013-08-19 01:52:00,
2013-08-18 21:11:00,74.0,66.0,30.07,South,170,0.0,0.0,75,0.00,,,0.00,,2013-08-19 02:11:00,
2013-08-18 21:21:00,73.0,65.0,30.08,South,170,0.0,0.0,77,0.00,,,0.00,,2013-08-19 02:21:00,
2013-08-18 21:42:00,73.0,66.0,30.08,South,170,0.0,0.0,78,0.00,,,0.00,,2013-08-19 02:42:00,
2013-08-18 21:52:00,72.0,65.0,30.09,South,170,0.0,0.0,79,0.00,,,0.00,,2013-08-19 02:52:00,
2013-08-18 22:11:00,72.0,66.0,30.09,South,170,0.0,0.0,81,0.00,,,0.00,,2013-08-19 03:11:00,
2013-08-18 22:21:00,71.0,65.0,30.09,South,170,0.0,0.0,82,0.00,,,0.00,,2013-08-19 03:21:00,
2013-08-18 22:42:00,71.0,66.0,30.10,South,170,0.0,0.0,83,0.00,,,0.00,,2013-08-19 03:42:00,
2013-08-18 22:53:00,71.0,66.0,30.10,South,170,0.0,0.0,83,0.00,,,0.00,,2013-08-19 03:53:00,
2013-08-18 23:12:00,70.0,65.0,30.10,South,170,0.0,0.0,84,0.00,,,0.00,,2013-08-19 04:12:00,
2013-08-18 23:23:00,70.0,65.0,30.10,South,170,0.0,0.0,83,0.00,,,0.00,,2013-08-19 04:23:00,
2013-08-18 23:42:00,70.0,65.0,30.10,South,170,0.0,0.0,85,0.00,,,0.00,,2013-08-19 04:42:00,
2013-08-18 23:53:00,69.0,64.0,30.11,South,170,0.0,0.0,85,0.00,,,0.00,,2013-08-19 04:53:00,